Regional Weather Roundup
Issued by NWS Cleveland, OH

Home | Current Version | Previous Version | Text Only | Print | Product List | Glossary Off
Versions: 1 2 3 4 5 6 7 8 9 10 11 12 13 14 15 16 17 18 19 20 21 22 23 24 25 26 27 28 29 30 31 32 33 34 35 36 37 38 39 40 41 42 43 44 45 46 47 48 49 50

000
ASUS41 KCLE 220400
RWRCLE
OHIO REGIONAL WEATHER ROUNDUP
NATIONAL WEATHER SERVICE WILMINGTON, OH
1200 AM EDT TUE JUL 22 2014

NOTE: "FAIR" INDICATES FEW OR NO CLOUDS BELOW 12,000 FEET WITH NO
SIGNIFICANT WEATHER AND/OR OBSTRUCTIONS TO VISIBILITY.

OHZ001>008-015>018-024>027-034-035-043-044-220500-
   NORTHWEST OHIO

CITY           SKY/WX    TMP DP  RH WIND       PRES   REMARKS
DEFIANCE       CLEAR     68  62  81 CALM      30.11F
FINDLAY        CLEAR     73  65  75 E3        30.11F
TOLEDO EXPRESS CLEAR     68  59  73 CALM      30.12S
TOLEDO METCALF CLEAR     69  59  70 CALM      30.12F
LIMA           CLEAR     70  64  81 E3        30.12F
$$

OHZ009>014-019>023-028>033-038-089-220500-
   NORTHEAST OHIO

CITY           SKY/WX    TMP DP  RH WIND       PRES   REMARKS
CLE-HOPKINS    CLEAR     70  58  65 SE3       30.14F
CLE-LAKEFRONT  CLEAR     74  57  55 CALM      30.11F
CUY CO. ARPT   NOT AVBL
LORAIN-ELYRIA  CLEAR     69  59  70 CALM      30.13F
ASHTABULA        N/A     63  60  90 CALM      30.15S FOG
AKRON-CANTON   PTCLDY    71  62  73 E5        30.15S
WOOSTER        NOT AVBL
MANSFIELD      CLEAR     70  59  68 CALM      30.15S
YOUNGSTOWN     CLEAR     67  64  90 E5        30.15S
$$

OHZ042-051>053-060>062-070>072-077>081-220500-
  SOUTHWEST OHIO

CITY           SKY/WX    TMP DP  RH WIND       PRES   REMARKS
CINC-COVINGTON PTCLDY    77  65  66 E5        30.11S
CINC-LUNKEN    PTCLDY    70  69  97 CALM      30.10F
HAMILTON       CLEAR     69  67  93 CALM      30.11F
DAYTON         NOT AVBL
WRIGHT-PAT AFB CLEAR     70  67  89 N1        30.12S
DAYTON GENERAL CLEAR     69  66  90 E6        30.11F
WILMINGTON     CLEAR     68  65  90 CALM      30.13S
$$

OHZ036-037-039>041-045>050-054>059-063>069-073>076-082>088-220500-
  CENTRAL AND SOUTHEAST OHIO

CITY           SKY/WX    TMP DP  RH WIND       PRES   REMARKS
COLUMBUS       CLEAR     76  67  73 E6        30.11S
OSU AIRPORT    CLEAR     73  67  81 CALM      30.12R
BOLTON FIELD   NOT AVBL
RICKENBACK AFB NOT AVBL
NEWARK         CLEAR     69  66  90 CALM      30.12S FOG
MARION         CLEAR     70  63  78 E6        30.13S
LANCASTER      CLEAR     68  66  93 CALM      30.12F FOG
ZANESVILLE     CLEAR     71  68  90 CALM      30.13S FOG
NEW PHILLY     CLEAR     68  67  96 CALM      30.14S FOG
$$



USA.gov is the U.S. government's official web portal to all federal, state and local government web resources and services.